Temp
19 19 20 21 21 21 22 22 23 23 23 24 24 25 26 27 27 28 29 29 29 28 28 28 27 25 24 24 25 26 23 24 27 28 26 27 26 25 25 24 24 24 23 23 22
19 20 20 21 21 22 22 23 23 23 24 24 25 25 26 27 28 29 29 29 28 28 28 29 29 27 26 27 27 25 22 26 28 26 26 28 28 26 25 24 23 23 23 22 22
19 20 20 21 21 22 23 23 23 24 24 24 25 25 26 27 28 29 29 29 28 28 28 29 29 28 27 28 28 25 25 26 28 29 29 28 27 26 24 23 24 23 23 22 22
19 20 20 21 22 22 23 23 23 24 24 24 25 25 26 27 27 29 29 29 29 28 28 29 29 28 28 28 29 26 27 29 29 29 29 27 27 26 26 26 26 25 24 23 22
19 19 20 21 21 22 23 23 24 24 24 24 25 25 26 26 29 29 29 29 29 29 29 29 29 29 27 28 28 27 28 29 29 29 29 29 27 26 26 27 26 24 23 23 22
18 19 20 20 21 22 23 23 24 24 24 24 25 25 24 24 29 29 29 29 29 29 29 29 29 29 28 28 28 30 29 29 30 27 28 26 26 26 27 26 24 24 23 23 23
18 18 19 20 21 22 23 23 24 24 24 24 24 24 24 28 29 29 28 29 29 29 29 29 29 29 29 28 30 30 27 26 26 26 25 27 26 25 26 25 24 24 24 24 24
17 18 19 20 20 21 22 23 24 24 25 24 24 24 25 28 28 29 29 29 29 29 29 29 29 28 29 30 29 26 25 25 27 27 26 27 24 25 25 25 24 24 24 24 24
17 18 18 19 20 21 22 23 24 25 25 24 24 24 26 28 29 29 29 29 29 29 29 29 29 29 29 25 24 23 24 25 27 27 26 26 25 26 25 25 24 24 24 24 24
16 17 18 19 19 21 22 23 24 24 24 24 23 23 27 28 28 28 29 29 29 29 29 29 29 23 21 22 24 25 25 26 26 27 27 25 24 23 25 25 24 24 25 24 25
16 17 18 19 19 21 22 23 23 23 23 24 24 26 27 28 28 29 28 29 29 29 26 27 24 23 24 23 26 26 25 25 27 28 27 25 26 25 25 24 24 24 24 25 25
15 16 18 19 19 20 21 21 19 18 18 24 25 25 26 26 26 29 29 29 28 26 26 23 22 24 25 25 25 25 25 25 26 28 27 26 27 26 24 25 25 24 24 26 26
15 16 17 18 19 20 21 20 20 21 20 23 25 26 27 27 26 29 29 29 27 26 26 23 25 27 26 26 26 25 25 25 26 28 29 28 26 25 24 25 25 25 25 25 27
14 15 16 19 19 20 20 21 21 22 15 20 23 27 27 28 27 29 29 29 26 25 24 24 26 26 26 25 25 24 25 28 27 27 24 27 24 23 24 23 23 24 25 26 26
14 15 16 17 18 19 20 21 22 22 18 24 25 27 28 28 30 29 29 29 25 26 24 24 27 27 27 26 26 26 26 26 27 25 24 25 23 23 22 24 22 24 25 25 27
14 14 16 16 18 19 20 21 22 17 18 23 26 26 25 27 27 29 29 29 29 26 25 25 27 27 26 28 27 28 27 21 19 19 21 23 23 22 22 23 24 25 26 26 26
15 14 15 17 18 18 19 21 16 16 21 24 25 25 24 25 26 27 26 25 24 24 23 25 25 27 29 28 27 25 21 21 22 21 21 21 22 22 24 23 24 25 26 28 26
15 15 16 18 18 18 18 16 17 18 19 22 24 24 26 27 26 26 25 23 24 23 20 23 23 26 29 27 27 27 22 20 24 21 22 22 24 25 24 23 25 26 26 24 24
15 16 18 18 18 18 18 14 15 17 21 22 22 24 23 23 24 25 23 23 23 22 23 20 22 25 27 27 27 26 24 22 19 18 21 21 23 24 23 20 20 19 21 21 22
15 17 18 18 18 18 13 13 15 17 21 21 22 23 23 23 23 23 23 25 25 23 24 23 23 24 27 28 27 26 23 23 18 23 23 21 22 22 23 20 19 18 18 21 22
15 15 17 17 17 17 12 12 17 21 22 21 21 22 23 23 22 23 24 25 25 25 22 21 22 25 28 26 26 24 24 19 18 18 20 21 21 18 19 20 19 18 20 22 23
14 12 17 16 15 10 12 14 20 20 21 21 20 19 22 23 23 24 24 25 25 24 23 21 19 21 23 25 25 25 24 21 20 22 17 18 21 18 16 17 19 18 21 21 23
13 14 16 17 13 11 13 16 19 20 20 20 21 22 23 23 24 23 23 25 25 23 25 21 19 21 22 22 24 26 25 19 16 16 17 20 21 17 16 17 20 19 20 20 23
12 11 16 16 15 14 16 16 17 21 20 21 21 22 21 21 20 23 22 24 25 22 22 22 16 21 22 22 23 26 26 23 20 19 19 19 23 18 17 17 18 20 21 20 19
12 12 14 13 15 13 15 16 16 18 21 20 21 22 21 21 20 20 21 21 23 23 21 19 21 22 22 23 25 26 26 24 25 23 23 23 19 19 18 18 19 21 20 20 19
12 12 14 14 15 13 11 15 17 18 19 21 21 20 20 19 20 20 20 21 21 21 19 17 20 21 23 23 24 26 26 25 25 22 21 20 20 18 20 20 20 21 21 20 23
11 12 13 14 14 14 15 16 19 20 21 21 20 18 19 20 21 22 22 21 21 22 20 18 17 18 21 20 23 22 24 24 24 21 19 20 21 19 18 17 20 22 21 23 23
Height
1544 1543 1541 1539 1537 1535 1533 1532 1530 1529 1527 1525 1524 1522 1520 1517 1514 1512 1512 1515 1515 1516 1517 1517 1517 1518 1519 1518 1517 1516 1525 1529 1523 1523 1523 1512 1515 1520 1519 1520 1522 1523 1521 1525 1530
1544 1542 1540 1538 1536 1535 1533 1531 1530 1528 1526 1524 1521 1520 1518 1515 1512 1510 1512 1512 1513 1515 1516 1516 1516 1518 1518 1515 1515 1515 1529 1521 1515 1514 1509 1506 1510 1513 1516 1520 1522 1522 1523 1526 1529
1542 1540 1539 1537 1535 1533 1531 1530 1529 1527 1524 1522 1520 1518 1516 1513 1511 1510 1510 1512 1513 1513 1514 1515 1516 1517 1516 1513 1512 1513 1521 1512 1512 1511 1506 1508 1513 1512 1513 1518 1513 1518 1522 1525 1529
1541 1539 1537 1535 1533 1531 1530 1529 1527 1525 1523 1521 1519 1517 1515 1513 1516 1510 1510 1511 1512 1512 1514 1514 1514 1514 1513 1511 1510 1513 1511 1513 1509 1504 1504 1507 1510 1513 1509 1509 1513 1515 1517 1524 1528
1539 1538 1536 1533 1531 1529 1528 1526 1525 1523 1523 1520 1518 1515 1514 1514 1510 1509 1510 1510 1511 1511 1511 1512 1512 1512 1513 1510 1508 1507 1505 1508 1506 1504 1502 1505 1507 1513 1511 1510 1513 1519 1521 1523 1527
1538 1536 1534 1532 1529 1527 1525 1524 1523 1522 1521 1519 1517 1515 1514 1514 1509 1508 1509 1509 1508 1509 1510 1510 1510 1512 1509 1507 1505 1501 1498 1499 1499 1500 1502 1506 1509 1511 1508 1511 1515 1520 1522 1522 1523
1536 1533 1532 1530 1527 1525 1523 1522 1521 1519 1518 1517 1515 1513 1511 1507 1506 1506 1507 1508 1508 1509 1509 1510 1510 1511 1510 1506 1501 1498 1504 1499 1496 1501 1504 1506 1511 1507 1508 1509 1512 1516 1520 1523 1522
1534 1532 1530 1527 1525 1523 1521 1519 1518 1516 1515 1515 1513 1512 1506 1503 1503 1504 1504 1505 1506 1506 1507 1508 1509 1509 1508 1506 1503 1505 1508 1517 1504 1502 1505 1507 1521 1501 1507 1507 1508 1512 1517 1517 1517
1532 1530 1528 1526 1523 1521 1519 1516 1515 1513 1512 1512 1511 1511 1503 1500 1500 1501 1502 1502 1504 1504 1505 1505 1506 1507 1506 1512 1521 1516 1528 1519 1510 1500 1504 1510 1513 1500 1507 1506 1508 1509 1509 1511 1516
1530 1528 1526 1523 1521 1518 1517 1514 1512 1511 1509 1509 1509 1512 1499 1499 1498 1499 1499 1500 1502 1502 1503 1503 1503 1508 1513 1521 1541 1527 1522 1514 1515 1501 1501 1506 1507 1502 1502 1504 1504 1506 1505 1506 1511
1527 1525 1522 1521 1519 1516 1515 1512 1513 1512 1508 1506 1505 1501 1496 1497 1497 1496 1497 1497 1499 1501 1505 1502 1509 1519 1512 1511 1510 1512 1517 1516 1498 1494 1501 1504 1501 1499 1495 1502 1502 1501 1502 1502 1504
1524 1522 1520 1518 1516 1515 1515 1514 1516 1519 1508 1499 1497 1495 1492 1495 1497 1492 1495 1497 1496 1502 1501 1509 1516 1502 1502 1506 1510 1512 1516 1512 1498 1491 1499 1498 1494 1492 1494 1490 1488 1489 1493 1499 1501
1521 1519 1517 1516 1514 1513 1513 1514 1514 1513 1510 1493 1489 1488 1485 1490 1489 1488 1492 1493 1494 1499 1500 1511 1500 1497 1501 1504 1510 1510 1513 1508 1505 1490 1487 1489 1497 1492 1492 1491 1490 1492 1490 1497 1497
1519 1516 1514 1513 1514 1511 1511 1512 1511 1510 1519 1496 1484 1478 1478 1482 1483 1483 1486 1490 1492 1498 1500 1502 1491 1495 1498 1503 1503 1517 1495 1492 1496 1502 1522 1493 1531 1501 1489 1489 1486 1486 1487 1491 1494
1516 1514 1512 1511 1509 1509 1510 1509 1509 1510 1539 1481 1475 1473 1471 1474 1473 1477 1478 1484 1489 1491 1497 1500 1491 1494 1498 1494 1492 1498 1486 1489 1492 1505 1511 1508 1526 1506 1493 1490 1484 1480 1482 1487 1494
1513 1511 1509 1508 1506 1507 1507 1508 1509 1525 1536 1487 1472 1471 1472 1470 1471 1473 1474 1480 1483 1487 1489 1490 1485 1487 1486 1481 1483 1480 1488 1501 1508 1521 1541 1514 1520 1515 1501 1487 1476 1475 1476 1484 1489
1510 1508 1505 1505 1505 1505 1506 1508 1526 1537 1495 1487 1479 1473 1473 1474 1471 1471 1475 1484 1494 1504 1504 1491 1486 1481 1480 1485 1482 1488 1506 1539 1540 1547 1546 1516 1523 1508 1484 1479 1474 1471 1473 1479 1485
1505 1503 1501 1500 1501 1504 1505 1510 1529 1509 1501 1482 1479 1473 1474 1469 1470 1471 1478 1488 1483 1487 1506 1509 1513 1481 1476 1482 1488 1488 1500 1534 1542 1548 1534 1511 1517 1497 1482 1477 1471 1472 1476 1480 1488
1500 1498 1494 1495 1497 1501 1505 1523 1516 1505 1491 1489 1482 1482 1482 1476 1476 1473 1479 1483 1478 1479 1499 1510 1504 1475 1473 1474 1478 1488 1501 1495 1527 1534 1534 1523 1503 1485 1478 1480 1474 1475 1473 1479 1481
1496 1493 1489 1490 1493 1499 1506 1514 1504 1494 1490 1488 1494 1484 1488 1484 1480 1478 1479 1472 1472 1469 1468 1482 1500 1477 1471 1471 1472 1477 1481 1509 1523 1535 1537 1528 1516 1510 1490 1488 1485 1481 1477 1481 1484
1495 1491 1490 1491 1494 1499 1511 1509 1498 1488 1491 1492 1491 1491 1485 1484 1482 1480 1477 1470 1466 1464 1466 1477 1488 1482 1473 1479 1479 1485 1490 1499 1509 1520 1536 1540 1524 1498 1490 1484 1485 1487 1481 1481 1489
1495 1494 1491 1494 1497 1501 1505 1499 1493 1490 1489 1490 1489 1488 1486 1480 1481 1479 1478 1472 1465 1463 1470 1468 1486 1497 1487 1471 1469 1472 1479 1488 1516 1516 1525 1525 1516 1492 1488 1483 1482 1489 1488 1489 1488
1494 1494 1494 1495 1502 1503 1497 1494 1491 1489 1488 1487 1485 1480 1478 1480 1484 1478 1476 1468 1464 1463 1463 1467 1489 1504 1496 1484 1472 1475 1474 1486 1497 1506 1524 1526 1514 1486 1488 1483 1482 1482 1483 1488 1486
1497 1496 1494 1496 1494 1495 1495 1493 1490 1480 1479 1480 1479 1479 1477 1481 1480 1480 1480 1469 1465 1462 1460 1463 1486 1486 1501 1491 1477 1478 1475 1479 1488 1508 1513 1511 1493 1489 1483 1481 1477 1477 1483 1488 1489
1498 1496 1495 1496 1494 1493 1493 1490 1489 1488 1474 1471 1475 1475 1476 1482 1483 1485 1479 1475 1466 1465 1461 1466 1484 1478 1477 1476 1472 1470 1472 1477 1479 1484 1495 1486 1496 1479 1470 1466 1467 1476 1481 1484 1486
1498 1497 1495 1492 1490 1489 1490 1486 1485 1481 1476 1472 1473 1473 1474 1481 1480 1484 1479 1477 1476 1468 1469 1471 1484 1479 1480 1476 1474 1470 1468 1469 1471 1480 1484 1483 1486 1469 1468 1469 1471 1468 1471 1481 1477
1498 1497 1497 1492 1490 1488 1488 1483 1478 1476 1473 1471 1470 1473 1477 1476 1474 1474 1473 1472 1473 1473 1475 1478 1484 1490 1491 1484 1478 1491 1477 1473 1473 1477 1482 1490 1475 1466 1467 1466 1465 1466 1467 1471 1474
Wind_Speed
10 10 10 11 12 12 12 12 12 13 14 14 15 14 13 12 11 13 11 5 3 2 2 1 5 7 8 7 8 2 4 2 4 4 3 15 7 14 5 18 8 9 13 20 25
11 11 11 12 12 12 12 12 12 13 13 14 15 15 14 15 12 10 8 8 6 3 2 4 6 6 5 5 6 4 3 3 3 8 7 12 11 16 8 13 1 10 19 22 25
13 13 13 13 13 13 13 13 13 13 14 15 16 15 14 14 8 3 3 6 5 6 7 6 7 7 6 5 7 5 6 4 12 17 13 7 6 5 17 4 16 28 26 26 26
14 14 14 15 14 14 14 14 14 14 14 14 15 15 13 11 2 3 2 3 7 9 9 6 6 3 3 3 4 3 9 11 12 27 23 7 7 6 18 9 23 27 29 28 29
15 16 16 16 16 15 15 15 14 14 14 14 15 15 13 8 5 6 3 5 6 9 8 6 7 3 2 5 8 6 5 14 21 24 25 19 10 5 14 12 21 30 30 30 29
16 16 17 17 18 17 17 16 15 15 14 14 15 15 11 5 5 5 6 4 6 4 2 5 2 6 10 6 2 8 14 8 19 26 19 10 2 1 4 24 27 30 34 32 32
17 17 17 18 19 19 18 17 16 16 14 14 14 14 16 16 7 9 9 7 4 6 7 6 8 8 7 5 11 9 5 8 7 13 6 7 6 8 12 31 31 31 32 33 32
17 18 18 18 19 20 19 18 17 17 15 15 14 13 11 10 11 15 14 11 8 11 13 13 15 12 5 5 8 6 4 4 3 7 7 9 10 8 22 31 29 31 32 37 35
17 18 18 18 19 20 19 18 18 17 16 14 12 8 11 6 10 12 18 15 7 12 14 17 13 6 1 4 5 5 3 3 1 13 6 5 7 6 27 29 24 29 35 37 35
17 17 17 18 19 19 17 16 14 11 8 9 12 7 11 3 2 7 12 16 13 13 14 5 4 3 4 4 4 5 5 3 6 9 11 12 11 7 25 27 26 31 38 36 36
17 17 17 16 17 17 14 6 4 3 11 9 8 11 14 12 11 11 7 14 17 12 4 4 4 5 9 7 5 3 4 8 6 6 6 11 9 10 27 22 22 32 35 38 37
17 17 17 15 14 13 8 4 7 10 13 13 19 25 29 26 13 14 7 7 5 5 3 4 4 9 3 4 5 6 7 12 8 6 7 13 8 6 15 30 39 37 37 37 34
17 17 17 14 13 10 5 1 9 6 5 12 16 20 30 17 18 22 10 7 5 4 4 6 8 3 3 3 5 5 7 9 10 5 3 2 7 2 5 6 25 24 29 33 38
17 17 16 13 7 7 3 3 5 2 4 8 6 11 17 15 7 22 22 15 2 9 5 6 5 8 6 7 8 4 11 16 9 3 5 4 5 6 3 1 7 18 19 32 36
17 17 15 12 10 6 5 3 1 1 3 5 5 2 9 18 19 9 25 21 9 6 6 11 3 1 4 8 7 11 7 15 10 3 5 3 3 8 3 5 10 14 22 25 29
17 17 16 14 13 7 6 2 3 5 6 7 2 2 5 6 7 5 6 17 11 5 3 9 3 5 7 5 6 3 4 8 6 5 1 7 5 6 4 8 5 12 25 23 27
18 17 18 14 7 5 3 3 4 4 5 6 2 4 3 2 2 6 5 5 6 3 6 4 6 4 5 5 3 5 6 2 2 2 6 4 3 9 7 8 9 13 21 30 28
18 18 17 16 10 10 3 4 4 5 7 6 5 5 2 1 4 4 3 4 3 4 3 5 8 5 4 6 5 2 7 6 5 3 5 4 4 5 3 12 14 19 9 8 15
18 17 17 10 12 13 8 3 8 7 4 7 8 3 5 5 4 3 7 7 8 10 9 6 9 5 5 5 6 2 2 5 7 3 2 3 6 6 6 11 12 20 25 25 25
19 16 12 8 12 18 4 4 4 6 5 5 3 2 4 5 5 3 7 1 6 12 5 7 3 6 5 4 2 6 6 2 3 4 4 5 4 5 4 4 4 10 20 20 20
15 9 2 8 19 12 4 6 5 23 3 3 3 4 4 2 2 2 2 3 0 5 9 6 4 7 3 3 4 2 2 6 6 4 6 1 6 6 6 4 4 7 21 23 22
7 2 7 15 4 2 3 6 5 9 1 5 4 8 6 3 3 2 2 2 15 6 9 9 6 6 11 5 1 2 5 6 5 5 1 4 6 4 7 9 8 10 17 16 18
11 4 10 17 2 2 4 4 7 7 9 5 4 4 1 4 1 2 3 8 14 5 3 6 1 2 10 7 5 2 2 5 5 4 5 6 6 4 7 10 17 18 25 19 19
4 2 4 12 5 5 0 5 5 10 13 8 6 1 2 3 3 2 4 4 11 9 10 6 3 6 8 7 4 3 2 3 4 4 5 6 3 7 9 11 18 26 16 25 30
2 2 1 2 6 4 4 4 6 5 6 16 3 5 5 2 3 2 3 5 5 15 8 4 3 1 3 3 3 4 4 6 4 4 3 4 7 9 17 16 24 21 19 22 25
1 3 6 5 10 3 6 5 8 10 4 0 3 3 3 5 4 3 1 0 1 6 6 5 1 1 2 2 5 1 4 3 4 4 3 4 5 7 12 17 17 23 19 24 15
3 3 2 5 5 2 3 5 4 3 2 4 4 6 6 3 6 6 8 6 4 1 2 3 2 3 3 2 0 5 6 5 5 6 5 3 8 2 5 11 26 27 16 23 18
Wind_Direction
340 337 336 335 337 341 342 343 345 341 336 335 335 336 331 320 303 286 269 231 184 176 90 296 212 211 225 247 229 248 48 344 90 72 236 139 132 173 210 150 170 202 171 165 176
330 329 328 329 330 332 333 337 337 333 331 333 333 336 332 326 318 271 243 216 218 209 264 257 227 207 234 230 187 146 101 169 202 167 224 170 138 159 140 173 62 133 151 167 181
323 323 323 323 323 325 327 329 328 330 331 331 330 334 335 336 340 68 179 200 230 254 269 260 244 247 226 212 190 189 182 203 162 158 204 176 127 145 140 202 178 157 162 174 180
316 316 315 315 316 318 319 321 322 327 326 326 326 330 338 334 153 81 69 206 235 253 260 246 229 221 241 240 195 190 221 184 204 186 191 200 156 188 176 191 177 172 170 177 184
313 311 310 311 311 311 312 314 316 319 317 320 320 325 338 316 276 237 288 304 280 255 243 226 225 275 295 288 304 206 203 205 208 205 206 199 200 211 227 190 168 168 172 180 192
307 306 307 306 306 306 305 306 309 309 310 312 312 317 322 292 224 232 248 302 272 226 195 207 266 306 294 256 221 302 314 277 206 192 199 170 28 39 259 174 166 171 182 189 199
305 304 304 304 303 302 300 301 303 301 302 300 301 306 297 266 242 221 234 258 277 275 284 284 304 289 318 308 322 326 27 0 51 147 168 148 324 229 185 169 168 178 190 197 206
303 303 303 302 301 299 297 300 298 294 291 288 290 298 272 281 238 226 228 238 249 271 292 299 298 285 232 307 347 24 39 35 284 141 163 142 244 239 176 171 172 181 195 205 210
300 301 302 302 301 298 297 299 296 290 282 276 281 276 266 263 234 237 234 245 251 272 289 289 280 246 235 75 0 12 204 233 274 211 136 172 252 203 178 184 179 186 202 209 213
299 299 300 302 302 300 302 302 298 288 281 263 253 276 252 207 297 266 250 248 252 278 289 279 170 99 41 77 210 250 307 243 178 215 188 186 252 149 175 189 189 197 209 209 213
303 301 299 300 302 306 313 339 335 252 308 253 273 254 269 272 288 270 303 238 246 258 257 339 77 227 240 202 206 243 227 269 285 172 148 198 224 186 188 197 201 202 209 215 215
307 303 299 299 298 300 316 39 55 323 298 264 259 260 259 269 283 246 261 227 166 204 140 10 225 235 230 175 197 232 273 270 287 197 189 189 207 229 190 207 205 202 207 210 212
307 305 300 298 295 286 277 41 345 340 245 282 250 246 253 242 236 248 239 240 170 198 211 183 236 60 188 243 207 216 212 260 224 327 308 31 323 347 205 233 223 221 209 212 208
308 306 305 301 283 269 226 301 344 325 46 272 230 248 219 213 256 234 239 222 150 208 187 231 260 224 268 251 159 229 218 241 265 26 270 33 280 307 304 263 235 217 209 220 215
308 304 303 299 276 281 254 299 16 198 335 253 236 288 208 180 217 230 232 212 194 204 122 242 255 179 246 240 150 237 188 214 236 128 13 321 81 273 344 275 246 229 226 224 221
306 304 297 292 278 266 260 245 143 49 248 306 272 245 132 220 195 151 162 201 217 197 228 238 239 183 225 273 181 291 67 39 41 86 79 249 134 287 206 229 253 241 228 231 217
305 299 289 276 274 195 208 162 54 160 317 285 334 353 163 308 293 166 154 140 169 138 275 321 266 246 221 290 16 83 65 2 9 12 213 124 72 237 278 277 232 237 229 231 236
307 296 278 267 249 240 194 63 172 227 255 304 318 315 316 185 226 200 138 221 225 115 124 176 303 181 164 177 228 130 145 153 211 216 258 201 226 263 320 320 276 254 263 140 162
316 301 282 274 221 199 177 128 199 213 275 341 331 25 348 343 204 169 187 215 199 169 173 167 262 277 229 187 128 215 172 185 108 33 42 267 295 340 355 22 67 91 122 124 132
321 313 293 228 192 173 98 227 242 208 357 5 303 5 357 332 23 16 171 240 273 194 167 216 292 217 283 188 186 163 162 80 8 131 241 295 280 234 334 7 352 94 110 123 139
321 326 76 135 155 159 170 224 249 273 345 335 311 302 288 315 273 327 249 204 210 300 149 140 134 254 118 205 211 16 227 56 113 134 163 203 271 180 235 254 222 176 138 133 109
333 338 156 154 103 92 164 195 244 282 310 251 244 219 233 234 314 360 356 274 342 223 164 195 159 237 225 279 269 170 199 140 132 248 108 147 263 110 238 264 216 194 178 125 108
339 293 177 179 135 263 275 269 243 252 254 243 251 240 206 219 211 229 323 304 350 42 134 183 198 263 322 353 8 152 137 102 90 92 188 131 258 164 239 263 210 209 202 152 129
328 355 144 221 242 147 172 275 247 268 239 200 235 241 103 50 355 214 349 301 337 10 45 103 123 159 212 209 168 152 119 113 126 107 163 214 254 265 229 217 223 209 209 177 155
265 267 328 249 267 234 185 261 278 319 231 189 213 213 159 168 21 26 307 319 339 357 26 84 102 204 188 278 269 217 131 150 179 169 149 240 204 232 223 207 213 200 201 181 199
280 344 340 297 293 267 174 246 233 264 240 219 110 100 154 143 175 195 264 38 259 331 31 352 100 98 96 345 309 276 339 79 118 133 111 106 261 212 237 240 256 250 232 190 182
347 310 302 284 302 46 212 263 297 349 323 96 149 108 95 190 212 242 229 254 240 246 10 61 77 50 274 317 120 8 3 31 82 35 129 142 244 131 238 214 237 238 212 203 187